This is the latest recevied weather packets stored in our database for station/object KI8L. If no packets are shown the sender has not sent any weather packets the latest 1 day(s).
| Time | Temp. | Humidity | Pressure | Rain* | Wind** | Luminosity | Snow |
|---|---|---|---|---|---|---|---|
| 1778054239 | 6.67° C | 99% | 1010.5 hPa | 3.05 mm | 0.45 m/s, 350° | 0 W/m² | - |
| 1778053935 | 6.67° C | 99% | 1010.5 hPa | 3.05 mm | 0.89 m/s, 0° | 0 W/m² | - |
| 1778053633 | 6.67° C | 99% | 1010.5 hPa | 3.05 mm | 0.89 m/s, 37° | 0 W/m² | - |
| 1778053330 | 6.67° C | 99% | 1010.3 hPa | 3.05 mm | 0.89 m/s, 22° | 0 W/m² | - |
| 1778053028 | 6.67° C | 99% | 1010.2 hPa | 4.83 mm | 0.89 m/s, 34° | 0 W/m² | - |
| 1778052725 | 6.67° C | 99% | 1010.2 hPa | 4.32 mm | 0.89 m/s, 32° | 0 W/m² | - |
| 1778052422 | 6.67° C | 99% | 1010.4 hPa | 4.83 mm | 1.34 m/s, 29° | 0 W/m² | - |
| 1778052119 | 6.67° C | 99% | 1010.3 hPa | 3.05 mm | 0.89 m/s, 26° | 0 W/m² | - |
| 1778051817 | 6.67° C | 99% | 1010.3 hPa | 3.05 mm | 1.34 m/s, 356° | 0 W/m² | - |
| 1778051514 | 6.67° C | 99% | 1010.3 hPa | 3.56 mm | 1.34 m/s, 14° | 0 W/m² | - |
| 1778051211 | 6.67° C | 99% | 1010 hPa | 3.05 mm | 3.58 m/s, 34° | 0 W/m² | - |
| 1778050908 | 7.22° C | 99% | 1009.9 hPa | 3.05 mm | 1.34 m/s, 12° | 0 W/m² | - |
| 1778050607 | 7.22° C | 99% | 1010 hPa | 4.32 mm | 0.45 m/s, 4° | 0 W/m² | - |
| 1778050303 | 7.22° C | 99% | 1010 hPa | 3.05 mm | 0.45 m/s, 8° | 0 W/m² | - |
| 1778050000 | 7.22° C | 99% | 1010 hPa | 3.05 mm | 0.89 m/s, 26° | 0 W/m² | - |
| 1778049695 | 7.22° C | 99% | 1010.1 hPa | 3.05 mm | 0.89 m/s, 356° | 0 W/m² | - |
| 1778049394 | 7.22° C | 99% | 1010.1 hPa | 4.83 mm | 0.89 m/s, 13° | 0 W/m² | - |
| 1778049090 | 7.22° C | 99% | 1010 hPa | 4.32 mm | 1.34 m/s, 16° | 0 W/m² | - |
| 1778048789 | 7.22° C | 99% | 1010.1 hPa | 3.05 mm | 1.34 m/s, 51° | 0 W/m² | - |
| 1778048485 | 7.22° C | 99% | 1010.1 hPa | 1.78 mm | 0.89 m/s, 17° | 0 W/m² | - |
| 1778048181 | 7.22° C | 99% | 1010.1 hPa | 1.27 mm | 1.34 m/s, 3° | 0 W/m² | - |
| 1778047879 | 7.22° C | 99% | 1010 hPa | 1.27 mm | 1.34 m/s, 38° | 0 W/m² | - |
| 1778047577 | 7.22° C | 99% | 1010.1 hPa | 0 mm | 0.89 m/s, 19° | 0 W/m² | - |
| 1778047274 | 7.22° C | 99% | 1010.1 hPa | 1.78 mm | 0.89 m/s, 21° | 0 W/m² | - |
| 1778046971 | 7.22° C | 99% | 1010.1 hPa | 1.78 mm | 0.45 m/s, 355° | 0 W/m² | - |
* Rain latest hour (hover to see other rain measurements)
** Current wind speed in m/s (hover to see current wind gust speed)